#timestamp,LO_Frequency,Hit,StdDev 
1603064215.6,286047014.3,P
1603064235.4,286047014.1,P
1603064255.2,286047015.9,P
1603064275.1,286047017.8,Y
1603064276.0,286047017.8,P
1603064295.8,286047004.2,N
1603064315.7,286047003.1,N
1603064335.5,286047003.5,N
1603064355.3,286047002.6,N
1603064375.2,286047002.0,N
1603064395.0,286047001.9,N
1603064395.9,286047001.9,N
1603064415.8,286047002.6,N
1603064435.6,286047001.4,N
1603064455.4,286047006.0,N
1603064475.3,286047003.7,N
1603064495.1,286047001.7,N
1603064515.8,286047004.2,N
1603064535.7,286047003.2,N
1603064555.5,286047003.8,N
1603064575.4,286047002.5,N
1603064595.2,286047000.5,N
1603064615.0,286046998.2,N
1603064615.9,286046998.2,N
1603064635.8,286046999.8,N
1603064655.6,286047000.3,N
1603064675.4,286047000.4,N
1603064695.3,286047002.5,N
1603064715.1,286047001.9,N
1603064735.9,286047004.1,N
1603064755.7,286047003.6,N
1603064775.5,286047002.2,N
1603064795.4,286047002.5,N
1603064815.2,286047002.2,N
1603064835.0,286047002.2,N
1603064835.9,286047002.2,N
1603064855.8,286047001.4,N
1603064875.6,286047003.6,N
1603064895.5,286047006.0,Y
1603064915.3,286047003.3,P
1603064935.1,286047007.0,P
1603064955.9,286047007.6,P
1603064975.7,286047007.2,Y
1603064995.6,286047000.1,P
1603065015.4,286047002.6,N
1603065035.2,286047002.8,N
1603065055.1,286047000.9,N
1603065056.0,286047000.9,N
1603065075.8,286046998.2,N
1603065095.6,286047000.4,N
1603065115.5,286047002.7,N
1603065135.3,286046999.8,N
1603065155.2,286047001.8,N
1603065175.9,286047003.6,N
1603065195.7,286047005.1,N
1603065215.6,286047007.1,Y
1603065235.4,286047004.1,P
1603065255.2,286047005.6,P
1603065275.1,286047003.6,N
1603065276.0,286047003.6,N
1603065295.8,286047002.2,N
1603065315.7,286047001.9,N
1603065335.5,286047003.5,N
1603065355.3,286047003.8,Y
1603065375.2,286046998.2,P
1603065395.0,286047000.1,N
1603065395.9,286047000.1,N
1603065415.8,286047002.8,N
1603065435.6,286047000.9,N
1603065455.4,286046999.9,N
1603065475.3,286047000.1,N
1603065495.1,286047004.4,N
1603065515.8,286047004.3,N
1603065535.7,286047004.1,N
1603065555.5,286047003.1,N
1603065575.4,286047005.1,N
1603065595.2,286047005.9,N
